• In Portugal
  • List of Countries
  • For 7 days
  • Water Temperature
  • Satellite Maps
  • Weather Map
  • Weather Widgets
  • user-avatar
    Login

    Hourly Weather Recife

    Today, 23 August, Wednesday

    Time Temperature Precipitation Wind Pressure Humidity
    00:00 +23°C° 0.1 mm 5 mps 760 mmHg 88%
    01:00 +23°C° 0.1 mm 5 mps 760 mmHg 88%
    02:00 +23°C° 0.3 mm 5 mps 760 mmHg 89%
    03:00 +23°C° 0.3 mm 4 mps 759 mmHg 90%
    04:00 +23°C° 0.3 mm 4 mps 759 mmHg 90%
    05:00 +23°C° 0.3 mm 4 mps 759 mmHg 90%
    06:00 +23°C° 0.3 mm 4 mps 759 mmHg 90%
    07:00 +23°C° 0.3 mm 4 mps 760 mmHg 90%
    08:00 +25°C° 0.3 mm 5 mps 760 mmHg 85%
    09:00 +27°C° 0.3 mm 5 mps 761 mmHg 81%
    10:00 +28°C° 0.3 mm 6 mps 761 mmHg 76%
    11:00 +29°C° 0.1 mm 6 mps 761 mmHg 71%
    12:00 +29°C° 0.1 mm 6 mps 761 mmHg 66%
    13:00 +30°C° 0.1 mm 6 mps 760 mmHg 61%
    14:00 +30°C° 0 mm 6 mps 760 mmHg 62%
    15:00 +30°C° 0 mm 5 mps 759 mmHg 63%
    16:00 +29°C° 0 mm 5 mps 759 mmHg 64%
    17:00 +28°C° 0.1 mm 5 mps 759 mmHg 71%
    18:00 +27°C° 0.1 mm 5 mps 759 mmHg 78%
    19:00 +26°C° 0.1 mm 5 mps 760 mmHg 85%
    20:00 +25°C° 0.2 mm 5 mps 760 mmHg 86%
    21:00 +25°C° 0.2 mm 5 mps 760 mmHg 88%
    22:00 +25°C° 0.2 mm 5 mps 761 mmHg 89%
    23:00 +25°C° 0.2 mm 5 mps 760 mmHg 89%

    Tomorrow, 24 August, Thursday

    Time Temperature Precipitation Wind Pressure Humidity
    00:00 +25°C° 0.2 mm 5 mps 760 mmHg 90%
    01:00 +25°C° 0.2 mm 5 mps 760 mmHg 90%
    02:00 +25°C° 0.1 mm 5 mps 760 mmHg 90%
    03:00 +25°C° 0.1 mm 5 mps 759 mmHg 90%
    04:00 +25°C° 0.1 mm 5 mps 759 mmHg 90%
    05:00 +25°C° 0.2 mm 5 mps 759 mmHg 90%
    06:00 +25°C° 0.2 mm 5 mps 759 mmHg 90%
    07:00 +25°C° 0.2 mm 5 mps 760 mmHg 90%
    08:00 +26°C° 0.3 mm 5 mps 760 mmHg 87%
    09:00 +27°C° 0.3 mm 5 mps 761 mmHg 84%
    10:00 +27°C° 0.3 mm 6 mps 761 mmHg 81%
    11:00 +28°C° 0.6 mm 6 mps 761 mmHg 79%
    12:00 +28°C° 0.6 mm 6 mps 761 mmHg 78%
    13:00 +29°C° 0.6 mm 6 mps 760 mmHg 76%
    14:00 +29°C° 0.3 mm 6 mps 760 mmHg 76%
    15:00 +28°C° 0.3 mm 6 mps 759 mmHg 75%
    16:00 +28°C° 0.3 mm 6 mps 759 mmHg 75%
    17:00 +28°C° 0.2 mm 6 mps 759 mmHg 78%
    18:00 +27°C° 0.2 mm 5 mps 759 mmHg 82%
    19:00 +26°C° 0.2 mm 5 mps 759 mmHg 85%
    20:00 +26°C° 0.2 mm 5 mps 760 mmHg 86%
    21:00 +25°C° 0.2 mm 5 mps 760 mmHg 87%
    22:00 +25°C° 0.2 mm 5 mps 761 mmHg 88%
    23:00 +25°C° 0.5 mm 5 mps 761 mmHg 89%

    Day after tomorrow, 25 August, Friday

    Time Temperature Precipitation Wind Pressure Humidity
    00:00 +25°C° 0.5 mm 5 mps 760 mmHg 89%
    01:00 +25°C° 0.5 mm 5 mps 760 mmHg 90%
    02:00 +25°C° 0.5 mm 5 mps 760 mmHg 90%
    03:00 +23°C° 0.5 mm 5 mps 759 mmHg 90%
    04:00 +23°C° 0.5 mm 4 mps 759 mmHg 91%
    05:00 +23°C° 0.6 mm 4 mps 759 mmHg 91%
    06:00 +23°C° 0.6 mm 4 mps 760 mmHg 91%
    07:00 +23°C° 0.6 mm 4 mps 760 mmHg 91%
    08:00 +26°C° 0.4 mm 5 mps 760 mmHg 87%
    09:00 +27°C° 0.4 mm 5 mps 761 mmHg 83%
    10:00 +28°C° 0.4 mm 5 mps 761 mmHg 78%
    11:00 +28°C° 0.4 mm 5 mps 761 mmHg 77%
    12:00 +29°C° 0.4 mm 6 mps 760 mmHg 75%
    13:00 +29°C° 0.4 mm 6 mps 760 mmHg 73%
    14:00 +29°C° 0.3 mm 6 mps 759 mmHg 74%
    15:00 +28°C° 0.3 mm 6 mps 759 mmHg 75%
    16:00 +28°C° 0.3 mm 6 mps 758 mmHg 75%
    17:00 +27°C° 0.2 mm 6 mps 759 mmHg 79%
    18:00 +26°C° 0.2 mm 5 mps 759 mmHg 82%
    19:00 +25°C° 0.2 mm 5 mps 760 mmHg 85%
    20:00 +25°C° 0.3 mm 5 mps 760 mmHg 86%
    21:00 +25°C° 0.3 mm 5 mps 761 mmHg 87%
    22:00 +25°C° 0.3 mm 5 mps 761 mmHg 88%
    23:00 +25°C° 0.4 mm 5 mps 761 mmHg 89%

    26 August, Saturday

    Time Temperature Precipitation Wind Pressure Humidity
    00:00 +23°C° 0.4 mm 5 mps 760 mmHg 89%
    01:00 +23°C° 0.4 mm 5 mps 760 mmHg 90%
    02:00 +23°C° 0.4 mm 5 mps 760 mmHg 90%
    03:00 +23°C° 0.4 mm 5 mps 759 mmHg 90%
    04:00 +23°C° 0.4 mm 5 mps 759 mmHg 90%
    05:00 +23°C° 0.3 mm 5 mps 759 mmHg 90%
    06:00 +23°C° 0.3 mm 5 mps 760 mmHg 90%
    07:00 +23°C° 0.3 mm 5 mps 760 mmHg 90%
    08:00 +25°C° 0.4 mm 5 mps 761 mmHg 85%
    09:00 +26°C° 0.4 mm 5 mps 761 mmHg 81%
    10:00 +27°C° 0.4 mm 6 mps 761 mmHg 77%
    11:00 +28°C° 0.2 mm 6 mps 761 mmHg 74%
    12:00 +28°C° 0.2 mm 6 mps 760 mmHg 70%
    13:00 +29°C° 0.2 mm 6 mps 760 mmHg 67%
    14:00 +29°C° 0.1 mm 6 mps 760 mmHg 68%
    15:00 +29°C° 0.1 mm 6 mps 759 mmHg 69%
    16:00 +28°C° 0.1 mm 6 mps 759 mmHg 70%
    17:00 +27°C° 0.1 mm 6 mps 759 mmHg 74%
    18:00 +26°C° 0.1 mm 6 mps 759 mmHg 78%
    19:00 +26°C° 0.1 mm 5 mps 760 mmHg 82%
    20:00 +25°C° 0.2 mm 5 mps 760 mmHg 84%
    21:00 +25°C° 0.2 mm 5 mps 760 mmHg 86%
    22:00 +25°C° 0.2 mm 5 mps 761 mmHg 87%
    23:00 +23°C° 0.3 mm 5 mps 760 mmHg 88%

    27 August, Sunday

    Time Temperature Precipitation Wind Pressure Humidity
    00:00 +23°C° 0.3 mm 5 mps 760 mmHg 89%
    01:00 +23°C° 0.3 mm 5 mps 760 mmHg 90%
    02:00 +23°C° 0.3 mm 5 mps 759 mmHg 90%
    03:00 +23°C° 0.3 mm 5 mps 759 mmHg 90%
    04:00 +23°C° 0.3 mm 5 mps 759 mmHg 91%
    05:00 +23°C° 0.4 mm 5 mps 759 mmHg 90%
    06:00 +23°C° 0.4 mm 5 mps 760 mmHg 90%
    07:00 +23°C° 0.4 mm 5 mps 760 mmHg 90%
    08:00 +25°C° 0.4 mm 5 mps 760 mmHg 86%
    09:00 +27°C° 0.4 mm 6 mps 760 mmHg 82%
    10:00 +28°C° 0.4 mm 6 mps 761 mmHg 78%
    11:00 +28°C° 0.5 mm 6 mps 760 mmHg 77%
    12:00 +28°C° 0.5 mm 6 mps 760 mmHg 75%
    13:00 +28°C° 0.5 mm 6 mps 759 mmHg 74%
    14:00 +28°C° 0.4 mm 6 mps 759 mmHg 75%
    15:00 +28°C° 0.4 mm 6 mps 759 mmHg 75%
    16:00 +28°C° 0.4 mm 6 mps 759 mmHg 76%
    17:00 +27°C° 0.3 mm 6 mps 759 mmHg 79%
    18:00 +26°C° 0.3 mm 6 mps 759 mmHg 82%
    19:00 +24°C° 0.3 mm 6 mps 760 mmHg 84%
    20:00 +24°C° 0.2 mm 6 mps 760 mmHg 85%
    21:00 +25°C° 0.2 mm 5 mps 760 mmHg 85%
    22:00 +25°C° 0.2 mm 5 mps 761 mmHg 86%
    23:00 +25°C° 0.3 mm 5 mps 760 mmHg 87%

    28 August, Monday

    Time Temperature Precipitation Wind Pressure Humidity
    00:00 +25°C° 0.3 mm 5 mps 760 mmHg 87%
    01:00 +25°C° 0.3 mm 5 mps 760 mmHg 88%
    02:00 +23°C° 0.3 mm 5 mps 759 mmHg 89%
    03:00 +23°C° 0.3 mm 5 mps 759 mmHg 89%
    04:00 +23°C° 0.3 mm 5 mps 759 mmHg 90%
    05:00 +23°C° 0.2 mm 5 mps 759 mmHg 89%
    06:00 +25°C° 0.2 mm 5 mps 760 mmHg 89%
    07:00 +25°C° 0.2 mm 5 mps 760 mmHg 88%
    08:00 +26°C° 0.2 mm 5 mps 760 mmHg 85%
    09:00 +27°C° 0.2 mm 5 mps 761 mmHg 81%
    10:00 +28°C° 0.2 mm 6 mps 761 mmHg 77%
    11:00 +28°C° 0.3 mm 6 mps 761 mmHg 75%
    12:00 +29°C° 0.3 mm 6 mps 760 mmHg 73%
    13:00 +29°C° 0.3 mm 6 mps 760 mmHg 71%
    14:00 +29°C° 0.2 mm 6 mps 760 mmHg 72%
    15:00 +29°C° 0.2 mm 6 mps 759 mmHg 73%
    16:00 +28°C° 0.2 mm 6 mps 759 mmHg 75%
    17:00 +27°C° 0.2 mm 5 mps 759 mmHg 79%
    18:00 +26°C° 0.2 mm 5 mps 759 mmHg 82%
    19:00 +26°C° 0.2 mm 5 mps 760 mmHg 86%
    20:00 +25°C° 0.2 mm 5 mps 760 mmHg 87%
    21:00 +25°C° 0.2 mm 5 mps 760 mmHg 88%
    22:00 +25°C° 0.2 mm 5 mps 761 mmHg 89%
    23:00 +25°C° 0.4 mm 5 mps 760 mmHg 89%
    Show more